Portada
METAR-TAF:

METAR-TAF

Aeroports :

Walnut Ridge, Arkansas, Estats Units d'Amèrica

latitud: 36-08N, longitud: 090-55W, altitud: 83 m

Observació

L'informe es va fer fa 20 minuts, a les 01:56 UTC
Vent 7 kt del Sud/Sud-Est
Temperatura 29°C
Humitat 74%
Pressió 1013 hPa
Visibilitat: 16.1 km
Cel clar

METAR: KARG 250156Z AUTO 15007KT 10SM CLR 29/24 A2990 RMK AO2 SLP124 T02890239

Hora: 21:16 (02:16 UTC)


TAF: manca

Observacions i pronòstics meteorològics de més de 4000 aeroports (METAR i TAF).

Les estacions disponibles són els punts grocs i vermells al mapa.

Posi el ratolí al punt desitjat per veure el nom de l'estació.

Feu clic per veure les observacions i els pronòstics meteorològics.

Per canviar el mapa: feu clic els botons verds amb una creu de color negre per apropar; al botó verd amb un guió per allunyar la imatge; o en les fletxes verdes per a mapes adjacents.


METAR-TAF: